Time,TemperatureF,DewpointF,PressureIn,WindDirection,WindDirectionDegrees,WindSpeedMPH,WindSpeedGustMPH,Humidity,HourlyPrecipIn,Conditions,Clouds,dailyrainin,SoftwareType,DateUTC
2013-07-21 00:00:00,66.1,60.5,29.96,ESE,122,8.8,-999.0,81,0.00,,,0.00,SSEC-RIG,2013-07-21 05:00:00,
2013-07-21 00:05:00,65.9,60.3,29.96,ESE,120,8.7,-999.0,81,0.00,,,0.00,SSEC-RIG,2013-07-21 05:05:00,
2013-07-21 00:10:00,66.3,60.9,29.96,ESE,123,5.6,-999.0,82,0.00,,,0.00,SSEC-RIG,2013-07-21 05:10:00,
2013-07-21 00:15:00,66.0,60.6,29.96,SE,127,7.9,-999.0,82,0.00,,,0.00,SSEC-RIG,2013-07-21 05:15:00,
2013-07-21 00:20:00,66.1,61.0,29.96,ESE,115,7.0,-999.0,83,0.00,,,0.00,SSEC-RIG,2013-07-21 05:20:00,
2013-07-21 00:25:00,66.0,60.8,29.96,ESE,112,5.6,-999.0,82,0.00,,,0.00,SSEC-RIG,2013-07-21 05:25:00,
2013-07-21 00:30:00,66.0,60.8,29.96,ESE,120,6.9,-999.0,82,0.00,,,0.00,SSEC-RIG,2013-07-21 05:30:00,
2013-07-21 00:35:00,65.7,60.6,29.96,ESE,123,9.5,-999.0,83,0.00,,,0.00,SSEC-RIG,2013-07-21 05:35:00,
2013-07-21 00:40:00,65.9,60.9,29.96,SE,124,6.9,-999.0,83,0.00,,,0.00,SSEC-RIG,2013-07-21 05:40:00,
2013-07-21 00:45:00,66.0,61.1,29.95,ESE,122,7.4,-999.0,83,0.00,,,0.00,SSEC-RIG,2013-07-21 05:45:00,
2013-07-21 00:50:00,65.9,60.9,29.95,ESE,120,9.0,-999.0,83,0.00,,,0.00,SSEC-RIG,2013-07-21 05:50:00,
2013-07-21 00:55:00,65.5,60.0,29.95,ESE,121,10.4,-999.0,81,0.00,,,0.00,SSEC-RIG,2013-07-21 05:55:00,
2013-07-21 01:00:00,65.8,60.5,29.96,ESE,118,7.7,-999.0,82,0.00,,,0.00,SSEC-RIG,2013-07-21 06:00:00,
2013-07-21 01:05:00,66.0,60.7,29.95,ESE,117,9.2,-999.0,82,0.00,,,0.00,SSEC-RIG,2013-07-21 06:05:00,
2013-07-21 01:10:00,65.7,60.1,29.95,ESE,121,9.7,-999.0,81,0.00,,,0.00,SSEC-RIG,2013-07-21 06:10:00,
2013-07-21 01:15:00,65.5,59.5,29.95,ESE,120,10.6,17.1,80,0.00,,,0.00,SSEC-RIG,2013-07-21 06:15:00,
2013-07-21 01:20:00,65.7,60.3,29.95,ESE,120,10.6,-999.0,82,0.00,,,0.00,SSEC-RIG,2013-07-21 06:20:00,
2013-07-21 01:25:00,65.6,60.6,29.95,ESE,115,8.8,-999.0,83,0.00,,,0.00,SSEC-RIG,2013-07-21 06:25:00,
2013-07-21 01:30:00,65.6,60.5,29.95,ESE,114,6.3,-999.0,83,0.00,,,0.00,SSEC-RIG,2013-07-21 06:30:00,
2013-07-21 01:35:00,65.5,60.3,29.95,ESE,119,7.9,-999.0,82,0.00,,,0.00,SSEC-RIG,2013-07-21 06:35:00,
2013-07-21 01:40:00,65.5,60.4,29.96,ESE,119,6.0,-999.0,83,0.00,,,0.00,SSEC-RIG,2013-07-21 06:40:00,
2013-07-21 01:45:00,65.6,60.3,29.96,ESE,110,4.6,-999.0,82,0.00,,,0.00,SSEC-RIG,2013-07-21 06:45:00,
2013-07-21 01:50:00,65.4,59.8,29.96,ESE,117,7.0,-999.0,81,0.00,,,0.00,SSEC-RIG,2013-07-21 06:50:00,
2013-07-21 01:55:00,65.6,59.9,29.96,ESE,113,7.2,-999.0,81,0.00,,,0.00,SSEC-RIG,2013-07-21 06:55:00,
2013-07-21 02:00:00,65.6,59.8,29.95,ESE,108,7.2,-999.0,81,0.00,,,0.00,SSEC-RIG,2013-07-21 07:00:00,
2013-07-21 02:05:00,65.7,59.7,29.95,ESE,104,7.5,-999.0,80,0.00,,,0.00,SSEC-RIG,2013-07-21 07:05:00,
2013-07-21 02:10:00,65.6,59.4,29.95,ESE,106,7.0,-999.0,79,0.00,,,0.00,SSEC-RIG,2013-07-21 07:10:00,
2013-07-21 02:15:00,65.5,59.4,29.95,ESE,107,7.5,-999.0,79,0.00,,,0.00,SSEC-RIG,2013-07-21 07:15:00,
2013-07-21 02:25:00,65.2,58.7,29.94,ESE,120,9.8,-999.0,79,0.00,,,0.00,SSEC-RIG,2013-07-21 07:25:00,
2013-07-21 02:30:00,65.3,58.7,29.95,ESE,120,8.1,-999.0,78,0.00,,,0.00,SSEC-RIG,2013-07-21 07:30:00,
2013-07-21 02:35:00,65.2,58.5,29.95,ESE,120,8.5,-999.0,78,0.00,,,0.00,SSEC-RIG,2013-07-21 07:35:00,
2013-07-21 02:40:00,64.9,57.8,29.94,ESE,121,9.9,-999.0,77,0.00,,,0.00,SSEC-RIG,2013-07-21 07:40:00,
2013-07-21 02:45:00,65.1,57.6,29.94,ESE,122,10.7,16.6,76,0.00,,,0.00,SSEC-RIG,2013-07-21 07:45:00,
2013-07-21 02:50:00,65.1,58.0,29.95,SE,129,8.9,-999.0,77,0.00,,,0.00,SSEC-RIG,2013-07-21 07:50:00,
2013-07-21 02:55:00,64.8,57.5,29.94,SE,129,11.1,16.6,76,0.00,,,0.00,SSEC-RIG,2013-07-21 07:55:00,
2013-07-21 03:00:00,64.7,57.5,29.94,SE,125,11.6,-999.0,76,0.00,,,0.00,SSEC-RIG,2013-07-21 08:00:00,
2013-07-21 03:05:00,65.1,58.8,29.94,ESE,121,6.9,-999.0,79,0.00,,,0.00,SSEC-RIG,2013-07-21 08:05:00,
2013-07-21 03:10:00,65.2,58.5,29.94,ESE,120,4.5,-999.0,78,0.00,,,0.00,SSEC-RIG,2013-07-21 08:10:00,
2013-07-21 03:15:00,64.9,57.9,29.95,ESE,107,8.7,-999.0,77,0.00,,,0.00,SSEC-RIG,2013-07-21 08:15:00,
2013-07-21 03:20:00,64.8,57.8,29.95,East,93,8.3,-999.0,77,0.00,,,0.00,SSEC-RIG,2013-07-21 08:20:00,
2013-07-21 03:25:00,64.7,57.5,29.95,East,90,7.8,-999.0,77,0.00,,,0.00,SSEC-RIG,2013-07-21 08:25:00,
2013-07-21 03:30:00,65.1,58.4,29.95,ESE,117,5.9,-999.0,78,0.00,,,0.00,SSEC-RIG,2013-07-21 08:30:00,
2013-07-21 03:35:00,65.0,58.2,29.94,ESE,114,6.1,-999.0,77,0.00,,,0.00,SSEC-RIG,2013-07-21 08:35:00,
2013-07-21 03:40:00,65.0,58.6,29.95,ESE,112,5.4,-999.0,79,0.00,,,0.00,SSEC-RIG,2013-07-21 08:40:00,
2013-07-21 03:45:00,65.2,58.7,29.95,ESE,112,4.7,-999.0,79,0.00,,,0.00,SSEC-RIG,2013-07-21 08:45:00,
2013-07-21 03:50:00,65.0,58.4,29.95,ESE,122,8.1,-999.0,78,0.00,,,0.00,SSEC-RIG,2013-07-21 08:50:00,
2013-07-21 03:55:00,64.6,57.9,29.94,ESE,115,10.7,-999.0,78,0.00,,,0.00,SSEC-RIG,2013-07-21 08:55:00,
2013-07-21 04:00:00,64.2,57.7,29.94,ESE,117,11.1,-999.0,79,0.00,,,0.00,SSEC-RIG,2013-07-21 09:00:00,
2013-07-21 04:05:00,64.2,57.6,29.94,ESE,118,12.4,18.8,78,0.00,,,0.00,SSEC-RIG,2013-07-21 09:05:00,
2013-07-21 04:10:00,64.2,58.2,29.94,SE,125,9.6,-999.0,80,0.00,,,0.00,SSEC-RIG,2013-07-21 09:10:00,
2013-07-21 04:15:00,64.4,58.4,29.94,SE,125,9.9,-999.0,80,0.00,,,0.00,SSEC-RIG,2013-07-21 09:15:00,
2013-07-21 04:20:00,64.4,58.4,29.94,SE,133,8.7,-999.0,80,0.00,,,0.00,SSEC-RIG,2013-07-21 09:20:00,
2013-07-21 04:25:00,63.9,57.5,29.94,SE,128,11.0,-999.0,79,0.00,,,0.00,SSEC-RIG,2013-07-21 09:25:00,
2013-07-21 04:30:00,64.0,58.2,29.94,SE,125,8.0,-999.0,81,0.00,,,0.00,SSEC-RIG,2013-07-21 09:30:00,
2013-07-21 04:35:00,64.1,58.7,29.94,SE,126,6.7,-999.0,82,0.00,,,0.00,SSEC-RIG,2013-07-21 09:35:00,
2013-07-21 04:40:00,64.0,58.5,29.94,SE,136,7.6,-999.0,81,0.00,,,0.00,SSEC-RIG,2013-07-21 09:40:00,
2013-07-21 04:45:00,64.1,58.7,29.94,SE,138,8.7,-999.0,82,0.00,,,0.00,SSEC-RIG,2013-07-21 09:45:00,
2013-07-21 04:50:00,64.0,58.2,29.94,SE,139,8.3,-999.0,81,0.00,,,0.00,SSEC-RIG,2013-07-21 09:50:00,
2013-07-21 04:55:00,64.1,58.6,29.94,SE,131,7.7,-999.0,81,0.00,,,0.00,SSEC-RIG,2013-07-21 09:55:00,
2013-07-21 05:00:00,63.7,57.8,29.94,SE,127,7.8,-999.0,80,0.00,,,0.00,SSEC-RIG,2013-07-21 10:00:00,
2013-07-21 05:05:00,63.9,58.4,29.94,ESE,123,7.8,-999.0,81,0.00,,,0.00,SSEC-RIG,2013-07-21 10:05:00,
2013-07-21 05:10:00,64.3,58.4,29.95,ESE,105,4.5,-999.0,80,0.00,,,0.00,SSEC-RIG,2013-07-21 10:10:00,
2013-07-21 05:15:00,64.3,58.3,29.94,ESE,118,9.5,-999.0,80,0.00,,,0.00,SSEC-RIG,2013-07-21 10:15:00,
2013-07-21 05:20:00,64.3,58.3,29.94,ESE,107,5.8,-999.0,80,0.00,,,0.00,SSEC-RIG,2013-07-21 10:20:00,
2013-07-21 05:30:00,64.0,58.2,29.94,ESE,123,9.5,-999.0,80,0.00,,,0.00,SSEC-RIG,2013-07-21 10:30:00,
2013-07-21 05:35:00,64.2,58.9,29.95,ESE,120,6.4,-999.0,82,0.00,,,0.00,SSEC-RIG,2013-07-21 10:35:00,
2013-07-21 05:40:00,64.0,58.0,29.95,SE,127,8.9,-999.0,80,0.00,,,0.00,SSEC-RIG,2013-07-21 10:40:00,
2013-07-21 05:45:00,64.0,58.2,29.95,ESE,121,9.3,-999.0,80,0.00,,,0.00,SSEC-RIG,2013-07-21 10:45:00,
2013-07-21 05:50:00,64.0,58.5,29.95,SE,128,9.2,-999.0,81,0.00,,,0.00,SSEC-RIG,2013-07-21 10:50:00,
2013-07-21 05:55:00,63.8,58.3,29.95,SE,137,10.6,-999.0,81,0.00,,,0.00,SSEC-RIG,2013-07-21 10:55:00,
2013-07-21 06:00:00,63.5,57.9,29.95,SE,141,10.2,-999.0,81,0.00,,,0.00,SSEC-RIG,2013-07-21 11:00:00,
2013-07-21 06:10:00,63.5,58.0,29.95,SE,129,10.6,-999.0,81,0.00,,,0.00,SSEC-RIG,2013-07-21 11:10:00,
2013-07-21 06:15:00,63.6,58.5,29.95,SE,124,10.0,-999.0,82,0.00,,,0.00,SSEC-RIG,2013-07-21 11:15:00,
2013-07-21 06:20:00,63.6,57.9,29.95,SE,125,10.8,-999.0,81,0.00,,,0.00,SSEC-RIG,2013-07-21 11:20:00,
2013-07-21 06:25:00,64.3,59.3,29.95,ESE,114,5.0,-999.0,83,0.00,,,0.00,SSEC-RIG,2013-07-21 11:25:00,
2013-07-21 06:30:00,64.3,58.0,29.96,East,100,6.5,-999.0,79,0.00,,,0.00,SSEC-RIG,2013-07-21 11:30:00,
2013-07-21 06:35:00,64.1,57.5,29.96,East,88,8.0,-999.0,78,0.00,,,0.00,SSEC-RIG,2013-07-21 11:35:00,
2013-07-21 06:40:00,64.3,57.5,29.96,East,84,7.2,-999.0,78,0.00,,,0.00,SSEC-RIG,2013-07-21 11:40:00,
2013-07-21 06:45:00,64.1,57.2,29.96,ENE,78,5.0,-999.0,77,0.00,,,0.00,SSEC-RIG,2013-07-21 11:45:00,
2013-07-21 06:55:00,64.8,57.4,29.96,ESE,110,4.4,-999.0,76,0.00,,,0.00,SSEC-RIG,2013-07-21 11:55:00,
2013-07-21 07:00:00,64.6,57.9,29.96,ESE,108,5.0,-999.0,78,0.00,,,0.00,SSEC-RIG,2013-07-21 12:00:00,
2013-07-21 07:05:00,64.5,58.1,29.96,ESE,103,5.5,-999.0,79,0.00,,,0.00,SSEC-RIG,2013-07-21 12:05:00,
2013-07-21 07:10:00,64.9,58.5,29.96,ESE,116,5.0,-999.0,79,0.00,,,0.00,SSEC-RIG,2013-07-21 12:10:00,
2013-07-21 07:15:00,64.7,58.7,29.96,ESE,121,7.0,-999.0,80,0.00,,,0.00,SSEC-RIG,2013-07-21 12:15:00,
2013-07-21 07:20:00,64.6,58.4,29.96,ESE,120,7.2,-999.0,80,0.00,,,0.00,SSEC-RIG,2013-07-21 12:20:00,
2013-07-21 07:25:00,64.3,57.6,29.96,SE,124,10.5,-999.0,78,0.00,,,0.00,SSEC-RIG,2013-07-21 12:25:00,
2013-07-21 07:30:00,64.5,58.1,29.96,SE,125,9.3,-999.0,79,0.00,,,0.00,SSEC-RIG,2013-07-21 12:30:00,
2013-07-21 07:35:00,64.9,58.4,29.96,SE,130,9.2,-999.0,79,0.00,,,0.00,SSEC-RIG,2013-07-21 12:35:00,
2013-07-21 07:40:00,65.3,58.3,29.96,SE,134,8.5,-999.0,77,0.00,,,0.00,SSEC-RIG,2013-07-21 12:40:00,
2013-07-21 07:45:00,65.0,58.2,29.96,SE,132,8.0,-999.0,78,0.00,,,0.00,SSEC-RIG,2013-07-21 12:45:00,
2013-07-21 07:50:00,65.3,58.8,29.96,SE,132,9.6,-999.0,79,0.00,,,0.00,SSEC-RIG,2013-07-21 12:50:00,
2013-07-21 07:55:00,64.9,57.9,29.95,SE,132,11.3,-999.0,77,0.00,,,0.00,SSEC-RIG,2013-07-21 12:55:00,
2013-07-21 08:00:00,64.9,57.7,29.96,SE,129,11.8,16.4,76,0.00,,,0.00,SSEC-RIG,2013-07-21 13:00:00,
2013-07-21 08:05:00,65.3,58.6,29.96,SE,124,9.8,-999.0,78,0.00,,,0.00,SSEC-RIG,2013-07-21 13:05:00,
2013-07-21 08:10:00,66.0,59.2,29.96,ESE,121,6.3,-999.0,78,0.00,,,0.00,SSEC-RIG,2013-07-21 13:10:00,
2013-07-21 08:15:00,65.8,58.7,29.96,SE,128,7.8,-999.0,77,0.00,,,0.00,SSEC-RIG,2013-07-21 13:15:00,
2013-07-21 08:20:00,66.0,58.8,29.96,SE,128,6.8,-999.0,77,0.00,,,0.00,SSEC-RIG,2013-07-21 13:20:00,
2013-07-21 08:25:00,65.8,58.8,29.96,SE,130,9.0,-999.0,77,0.00,,,0.00,SSEC-RIG,2013-07-21 13:25:00,
2013-07-21 08:30:00,66.4,59.2,29.96,ESE,123,6.5,-999.0,77,0.00,,,0.00,SSEC-RIG,2013-07-21 13:30:00,
2013-07-21 08:35:00,66.5,58.8,29.96,ESE,120,5.9,-999.0,75,0.00,,,0.00,SSEC-RIG,2013-07-21 13:35:00,
2013-07-21 08:40:00,66.8,59.0,29.96,SE,126,6.5,-999.0,75,0.00,,,0.00,SSEC-RIG,2013-07-21 13:40:00,
2013-07-21 08:45:00,66.5,58.6,29.96,SE,127,8.7,-999.0,75,0.00,,,0.00,SSEC-RIG,2013-07-21 13:45:00,
2013-07-21 08:50:00,67.2,58.4,29.96,SE,139,11.8,-999.0,72,0.00,,,0.00,SSEC-RIG,2013-07-21 13:50:00,
2013-07-21 08:55:00,67.2,57.7,29.96,SE,132,11.1,-999.0,71,0.00,,,0.00,SSEC-RIG,2013-07-21 13:55:00,
2013-07-21 09:00:00,67.0,57.7,29.96,SE,131,11.8,-999.0,71,0.00,,,0.00,SSEC-RIG,2013-07-21 14:00:00,
2013-07-21 09:05:00,67.0,58.0,29.96,SE,132,10.7,-999.0,72,0.00,,,0.00,SSEC-RIG,2013-07-21 14:05:00,
2013-07-21 09:10:00,68.1,59.1,29.96,SE,136,8.9,-999.0,72,0.00,,,0.00,SSEC-RIG,2013-07-21 14:10:00,
2013-07-21 09:15:00,68.4,59.0,29.95,SE,128,9.6,-999.0,71,0.00,,,0.00,SSEC-RIG,2013-07-21 14:15:00,
2013-07-21 09:20:00,68.1,58.2,29.95,SE,125,11.3,-999.0,70,0.00,,,0.00,SSEC-RIG,2013-07-21 14:20:00,
2013-07-21 09:25:00,68.6,58.9,29.96,SE,131,9.2,-999.0,70,0.00,,,0.00,SSEC-RIG,2013-07-21 14:25:00,
2013-07-21 09:30:00,69.3,59.0,29.95,SSE,149,10.3,-999.0,69,0.00,,,0.00,SSEC-RIG,2013-07-21 14:30:00,
2013-07-21 09:35:00,69.3,57.8,29.96,SSE,158,11.3,-999.0,66,0.00,,,0.00,SSEC-RIG,2013-07-21 14:35:00,
2013-07-21 09:40:00,69.4,58.9,29.96,SE,146,9.4,-999.0,68,0.00,,,0.00,SSEC-RIG,2013-07-21 14:40:00,
2013-07-21 09:45:00,69.4,59.5,29.96,SE,136,9.0,-999.0,70,0.00,,,0.00,SSEC-RIG,2013-07-21 14:45:00,
2013-07-21 09:50:00,69.9,59.4,29.95,SE,145,9.9,-999.0,68,0.00,,,0.00,SSEC-RIG,2013-07-21 14:50:00,
2013-07-21 09:55:00,70.1,59.2,29.95,SSE,162,9.0,-999.0,67,0.00,,,0.00,SSEC-RIG,2013-07-21 14:55:00,
2013-07-21 10:00:00,70.0,59.5,29.95,SE,146,11.9,-999.0,68,0.00,,,0.00,SSEC-RIG,2013-07-21 15:00:00,
2013-07-21 10:05:00,70.6,59.7,29.95,SSE,154,10.2,-999.0,67,0.00,,,0.00,SSEC-RIG,2013-07-21 15:05:00,
2013-07-21 10:10:00,70.6,59.8,29.95,SE,137,10.1,-999.0,68,0.00,,,0.00,SSEC-RIG,2013-07-21 15:10:00,
2013-07-21 10:15:00,70.4,59.2,29.95,SSE,150,11.3,-999.0,67,0.00,,,0.00,SSEC-RIG,2013-07-21 15:15:00,
2013-07-21 10:25:00,70.8,59.9,29.95,SE,145,9.1,-999.0,67,0.00,,,0.00,SSEC-RIG,2013-07-21 15:25:00,
2013-07-21 10:30:00,71.6,60.8,29.95,SE,145,9.9,-999.0,68,0.00,,,0.00,SSEC-RIG,2013-07-21 15:30:00,
2013-07-21 10:35:00,71.2,59.3,29.95,SSE,162,11.4,-999.0,65,0.00,,,0.00,SSEC-RIG,2013-07-21 15:35:00,
2013-07-21 10:40:00,72.1,60.8,29.95,SSE,150,8.4,-999.0,67,0.00,,,0.00,SSEC-RIG,2013-07-21 15:40:00,
2013-07-21 10:45:00,72.0,60.8,29.95,SE,140,10.3,-999.0,67,0.00,,,0.00,SSEC-RIG,2013-07-21 15:45:00,
2013-07-21 10:50:00,72.1,60.6,29.96,SSE,155,10.9,-999.0,66,0.00,,,0.00,SSEC-RIG,2013-07-21 15:50:00,
2013-07-21 11:00:00,73.0,62.2,29.96,SE,139,6.5,-999.0,68,0.00,,,0.00,SSEC-RIG,2013-07-21 16:00:00,
2013-07-21 11:05:00,73.9,61.9,29.96,SSE,160,5.8,-999.0,65,0.00,,,0.00,SSEC-RIG,2013-07-21 16:05:00,
2013-07-21 11:10:00,73.9,61.2,29.96,SSW,195,4.7,-999.0,64,0.00,,,0.00,SSEC-RIG,2013-07-21 16:10:00,
2013-07-21 11:20:00,73.8,61.7,29.96,South,172,9.3,-999.0,65,0.00,,,0.00,SSEC-RIG,2013-07-21 16:20:00,
2013-07-21 11:25:00,74.4,63.0,29.95,SE,141,7.9,-999.0,67,0.00,,,0.00,SSEC-RIG,2013-07-21 16:25:00,
2013-07-21 11:30:00,75.0,63.2,29.95,SSE,152,6.3,-999.0,66,0.00,,,0.00,SSEC-RIG,2013-07-21 16:30:00,
2013-07-21 11:35:00,74.7,62.2,29.95,SSE,168,8.3,-999.0,64,0.00,,,0.00,SSEC-RIG,2013-07-21 16:35:00,
2013-07-21 11:40:00,74.7,61.9,29.95,SSE,164,8.1,-999.0,64,0.00,,,0.00,SSEC-RIG,2013-07-21 16:40:00,
2013-07-21 11:45:00,74.1,62.9,29.95,SE,141,8.3,-999.0,67,0.00,,,0.00,SSEC-RIG,2013-07-21 16:45:00,
2013-07-21 11:50:00,73.9,63.1,29.95,SE,133,9.5,-999.0,68,0.00,,,0.00,SSEC-RIG,2013-07-21 16:50:00,
2013-07-21 11:55:00,74.0,63.2,29.94,SE,141,9.1,-999.0,68,0.00,,,0.00,SSEC-RIG,2013-07-21 16:55:00,
2013-07-21 12:00:00,74.9,63.4,29.94,SSE,163,8.1,-999.0,67,0.00,,,0.00,SSEC-RIG,2013-07-21 17:00:00,
2013-07-21 12:05:00,75.2,64.1,29.94,SE,142,6.4,-999.0,68,0.00,,,0.00,SSEC-RIG,2013-07-21 17:05:00,
2013-07-21 12:10:00,74.9,64.1,29.94,ESE,115,7.4,-999.0,68,0.00,,,0.00,SSEC-RIG,2013-07-21 17:10:00,
2013-07-21 12:15:00,75.8,65.1,29.94,ESE,122,5.4,-999.0,68,0.00,,,0.00,SSEC-RIG,2013-07-21 17:15:00,
2013-07-21 12:20:00,76.0,64.8,29.94,SE,135,5.9,-999.0,67,0.00,,,0.00,SSEC-RIG,2013-07-21 17:20:00,
2013-07-21 12:25:00,75.6,64.0,29.94,SE,132,9.7,-999.0,67,0.00,,,0.00,SSEC-RIG,2013-07-21 17:25:00,
2013-07-21 12:30:00,76.3,64.9,29.94,SE,139,7.6,-999.0,67,0.00,,,0.00,SSEC-RIG,2013-07-21 17:30:00,
2013-07-21 12:40:00,75.9,64.8,29.93,ESE,119,6.3,-999.0,68,0.00,,,0.00,SSEC-RIG,2013-07-21 17:40:00,
2013-07-21 12:45:00,76.5,65.4,29.93,ESE,119,6.5,-999.0,68,0.00,,,0.00,SSEC-RIG,2013-07-21 17:45:00,
2013-07-21 12:50:00,76.8,65.7,29.93,SE,128,5.9,-999.0,68,0.00,,,0.00,SSEC-RIG,2013-07-21 17:50:00,
2013-07-21 13:00:00,76.6,64.9,29.93,SE,132,7.9,-999.0,66,0.00,,,0.00,SSEC-RIG,2013-07-21 18:00:00,
2013-07-21 13:05:00,77.0,65.6,29.92,SE,128,8.2,-999.0,67,0.00,,,0.00,SSEC-RIG,2013-07-21 18:05:00,
2013-07-21 13:10:00,77.3,65.8,29.92,SE,135,6.7,-999.0,67,0.00,,,0.00,SSEC-RIG,2013-07-21 18:10:00,
2013-07-21 13:15:00,77.7,65.2,29.92,SE,143,7.3,-999.0,64,0.00,,,0.00,SSEC-RIG,2013-07-21 18:15:00,
2013-07-21 13:25:00,77.4,66.3,29.92,SE,127,8.2,-999.0,68,0.00,,,0.00,SSEC-RIG,2013-07-21 18:25:00,
2013-07-21 13:30:00,77.5,66.3,29.92,SE,129,6.7,-999.0,68,0.00,,,0.00,SSEC-RIG,2013-07-21 18:30:00,
2013-07-21 13:35:00,77.6,65.8,29.92,SE,137,10.6,16.3,66,0.00,,,0.00,SSEC-RIG,2013-07-21 18:35:00,
2013-07-21 13:40:00,78.1,65.6,29.92,SSE,165,8.2,-999.0,65,0.00,,,0.00,SSEC-RIG,2013-07-21 18:40:00,
2013-07-21 13:45:00,78.8,64.7,29.91,South,187,8.6,-999.0,61,0.00,,,0.00,SSEC-RIG,2013-07-21 18:45:00,
2013-07-21 13:50:00,78.4,64.1,29.91,South,187,9.3,-999.0,61,0.00,,,0.00,SSEC-RIG,2013-07-21 18:50:00,
2013-07-21 13:55:00,78.3,65.0,29.91,SSE,158,8.5,-999.0,63,0.00,,,0.00,SSEC-RIG,2013-07-21 18:55:00,
2013-07-21 14:00:00,78.9,65.0,29.91,South,179,5.0,-999.0,61,0.00,,,0.00,SSEC-RIG,2013-07-21 19:00:00,
2013-07-21 14:05:00,79.2,66.2,29.90,SE,144,6.1,-999.0,64,0.00,,,0.00,SSEC-RIG,2013-07-21 19:05:00,
2013-07-21 14:10:00,78.8,65.4,29.90,SSE,155,8.1,-999.0,63,0.00,,,0.00,SSEC-RIG,2013-07-21 19:10:00,
2013-07-21 14:20:00,80.0,67.2,29.89,SE,128,4.8,-999.0,64,0.00,,,0.00,SSEC-RIG,2013-07-21 19:20:00,
2013-07-21 14:25:00,80.1,66.6,29.89,SSE,162,5.5,-999.0,63,0.00,,,0.00,SSEC-RIG,2013-07-21 19:25:00,
2013-07-21 14:30:00,79.5,67.1,29.88,SE,127,6.7,-999.0,65,0.00,,,0.00,SSEC-RIG,2013-07-21 19:30:00,
2013-07-21 14:35:00,79.3,66.9,29.88,East,97,4.9,-999.0,65,0.00,,,0.00,SSEC-RIG,2013-07-21 19:35:00,
2013-07-21 14:40:00,79.6,67.2,29.88,SE,133,5.8,-999.0,65,0.00,,,0.00,SSEC-RIG,2013-07-21 19:40:00,
2013-07-21 14:45:00,79.3,67.6,29.88,ESE,120,6.8,-999.0,66,0.00,,,0.00,SSEC-RIG,2013-07-21 19:45:00,
2013-07-21 14:50:00,78.8,66.9,29.88,SE,131,9.9,-999.0,66,0.00,,,0.00,SSEC-RIG,2013-07-21 19:50:00,
2013-07-21 14:55:00,79.0,65.9,29.88,South,182,10.0,18.8,63,0.00,,,0.00,SSEC-RIG,2013-07-21 19:55:00,
2013-07-21 15:00:00,74.1,65.7,29.88,SSW,196,26.7,37.2,74,0.10,,,0.10,SSEC-RIG,2013-07-21 20:00:00,
2013-07-21 15:05:00,68.3,65.6,29.88,South,185,30.7,38.6,90,0.18,,,0.29,SSEC-RIG,2013-07-21 20:05:00,
2013-07-21 15:10:00,68.4,65.5,29.88,SSE,166,23.1,30.6,90,0.08,,,0.39,SSEC-RIG,2013-07-21 20:10:00,
2013-07-21 15:15:00,68.5,64.4,29.89,South,176,16.8,20.9,86,0.00,,,0.39,SSEC-RIG,2013-07-21 20:15:00,
2013-07-21 15:20:00,68.1,62.5,29.89,South,181,10.9,18.6,81,0.00,,,0.39,SSEC-RIG,2013-07-21 20:20:00,
2013-07-21 15:25:00,67.6,63.2,29.89,South,173,9.5,-999.0,85,0.01,,,0.40,SSEC-RIG,2013-07-21 20:25:00,
2013-07-21 15:35:00,67.2,63.2,29.88,South,176,12.2,-999.0,86,0.00,,,0.41,SSEC-RIG,2013-07-21 20:35:00,
2013-07-21 15:40:00,67.5,63.0,29.88,SSE,165,10.0,-999.0,85,0.01,,,0.42,SSEC-RIG,2013-07-21 20:40:00,
2013-07-21 15:45:00,67.8,63.7,29.88,SE,146,9.0,-999.0,86,0.02,,,0.44,SSEC-RIG,2013-07-21 20:45:00,
2013-07-21 15:50:00,67.6,64.2,29.88,SSE,151,7.9,-999.0,88,0.00,,,0.44,SSEC-RIG,2013-07-21 20:50:00,
2013-07-21 15:55:00,67.3,64.2,29.89,SSE,155,6.5,-999.0,89,0.01,,,0.45,SSEC-RIG,2013-07-21 20:55:00,
2013-07-21 16:00:00,68.0,64.9,29.89,SE,136,7.4,-999.0,89,0.00,,,0.45,SSEC-RIG,2013-07-21 21:00:00,
2013-07-21 16:05:00,68.8,64.2,29.90,NE,56,9.9,18.3,84,0.00,,,0.45,SSEC-RIG,2013-07-21 21:05:00,
2013-07-21 16:10:00,67.4,64.1,29.91,North,352,25.5,38.8,88,0.00,,,0.45,SSEC-RIG,2013-07-21 21:10:00,
2013-07-21 16:15:00,65.6,63.2,29.90,North,8,30.7,38.4,91,0.00,,,0.45,SSEC-RIG,2013-07-21 21:15:00,
2013-07-21 16:20:00,65.2,63.6,29.90,North,6,27.7,36.1,93,0.01,,,0.46,SSEC-RIG,2013-07-21 21:20:00,
2013-07-21 16:25:00,64.9,63.4,29.92,North,352,30.7,39.9,94,0.01,,,0.47,SSEC-RIG,2013-07-21 21:25:00,
2013-07-21 16:30:00,64.7,63.1,29.93,NNW,338,26.4,36.8,93,0.03,,,0.50,SSEC-RIG,2013-07-21 21:30:00,
2013-07-21 16:35:00,63.9,62.6,29.93,NNW,332,23.8,35.8,94,0.05,,,0.55,SSEC-RIG,2013-07-21 21:35:00,
2013-07-21 16:40:00,63.2,61.9,29.93,North,349,27.8,36.7,95,0.03,,,0.58,SSEC-RIG,2013-07-21 21:40:00,
2013-07-21 16:45:00,63.3,62.3,29.93,North,350,23.3,33.0,95,0.02,,,0.61,SSEC-RIG,2013-07-21 21:45:00,
2013-07-21 16:50:00,63.6,62.7,29.92,North,11,21.3,27.4,96,0.03,,,0.64,SSEC-RIG,2013-07-21 21:50:00,
2013-07-21 16:55:00,64.1,63.2,29.92,NNE,13,17.4,25.0,96,0.04,,,0.68,SSEC-RIG,2013-07-21 21:55:00,
2013-07-21 17:00:00,64.3,63.4,29.92,NNE,22,19.5,26.4,96,0.02,,,0.70,SSEC-RIG,2013-07-21 22:00:00,
2013-07-21 17:05:00,64.4,63.5,29.92,NNE,31,17.4,24.9,96,0.01,,,0.71,SSEC-RIG,2013-07-21 22:05:00,
2013-07-21 17:10:00,64.4,63.5,29.92,NE,36,17.5,24.2,96,0.00,,,0.71,SSEC-RIG,2013-07-21 22:10:00,
2013-07-21 17:15:00,64.3,63.3,29.92,NE,41,18.3,23.7,95,0.00,,,0.71,SSEC-RIG,2013-07-21 22:15:00,
2013-07-21 17:20:00,64.3,63.3,29.93,NE,45,16.6,23.1,96,0.00,,,0.71,SSEC-RIG,2013-07-21 22:20:00,
2013-07-21 17:25:00,64.4,63.5,29.92,NE,53,13.6,20.2,96,0.00,,,0.71,SSEC-RIG,2013-07-21 22:25:00,
2013-07-21 17:30:00,64.2,63.3,29.91,ENE,59,20.1,27.4,96,0.00,,,0.71,SSEC-RIG,2013-07-21 22:30:00,
2013-07-21 17:35:00,64.3,63.2,29.91,ENE,57,19.8,26.3,95,0.00,,,0.71,SSEC-RIG,2013-07-21 22:35:00,
2013-07-21 17:40:00,64.5,63.1,29.91,ENE,63,15.3,24.7,94,0.00,,,0.71,SSEC-RIG,2013-07-21 22:40:00,
2013-07-21 17:45:00,64.8,62.8,29.92,ENE,67,14.4,21.5,92,0.00,,,0.71,SSEC-RIG,2013-07-21 22:45:00,
2013-07-21 17:50:00,65.0,62.5,29.92,ENE,67,12.1,18.6,90,0.00,,,0.71,SSEC-RIG,2013-07-21 22:50:00,
2013-07-21 17:55:00,65.7,62.7,29.92,East,87,12.4,19.0,89,0.00,,,0.71,SSEC-RIG,2013-07-21 22:55:00,
2013-07-21 18:00:00,65.9,62.4,29.92,East,91,14.0,22.5,88,0.00,,,0.71,SSEC-RIG,2013-07-21 23:00:00,
2013-07-21 18:05:00,65.6,61.7,29.91,ENE,77,15.7,22.4,86,0.00,,,0.71,SSEC-RIG,2013-07-21 23:05:00,
2013-07-21 18:10:00,65.8,61.9,29.91,ENE,78,14.7,21.3,86,0.00,,,0.71,SSEC-RIG,2013-07-21 23:10:00,
2013-07-21 18:15:00,66.0,62.1,29.91,East,93,14.6,19.8,86,0.00,,,0.71,SSEC-RIG,2013-07-21 23:15:00,
2013-07-21 18:20:00,65.9,62.0,29.92,East,100,16.0,23.9,86,0.00,,,0.71,SSEC-RIG,2013-07-21 23:20:00,
2013-07-21 18:25:00,65.8,62.5,29.92,ESE,123,15.7,21.5,88,0.00,,,0.71,SSEC-RIG,2013-07-21 23:25:00,
2013-07-21 18:30:00,65.2,62.2,29.93,SE,131,17.9,21.4,89,0.00,,,0.71,SSEC-RIG,2013-07-21 23:30:00,
2013-07-21 18:35:00,65.2,62.3,29.92,SE,126,16.5,21.1,89,0.00,,,0.71,SSEC-RIG,2013-07-21 23:35:00,
2013-07-21 18:40:00,65.4,62.5,29.93,SE,124,14.1,19.7,89,0.00,,,0.71,SSEC-RIG,2013-07-21 23:40:00,
2013-07-21 18:45:00,65.2,62.1,29.92,ESE,120,16.1,19.4,89,0.00,,,0.71,SSEC-RIG,2013-07-21 23:45:00,
2013-07-21 18:50:00,65.5,62.5,29.92,SE,126,13.0,17.1,89,0.00,,,0.71,SSEC-RIG,2013-07-21 23:50:00,
2013-07-21 18:55:00,65.3,62.1,29.92,ESE,120,14.6,18.1,88,0.00,,,0.71,SSEC-RIG,2013-07-21 23:55:00,
2013-07-21 19:05:00,65.0,61.8,29.91,ESE,123,18.7,22.3,88,0.00,,,0.00,SSEC-RIG,2013-07-22 00:05:00,
2013-07-21 19:10:00,65.3,62.2,29.90,ESE,117,17.7,24.2,89,0.00,,,0.00,SSEC-RIG,2013-07-22 00:10:00,
2013-07-21 19:15:00,65.3,62.2,29.90,ESE,113,16.0,22.9,89,0.00,,,0.00,SSEC-RIG,2013-07-22 00:15:00,
2013-07-21 19:20:00,65.5,62.5,29.90,ESE,115,13.0,18.9,89,0.00,,,0.00,SSEC-RIG,2013-07-22 00:20:00,
2013-07-21 19:25:00,65.4,62.1,29.90,ESE,119,16.0,25.4,88,0.00,,,0.00,SSEC-RIG,2013-07-22 00:25:00,
2013-07-21 19:30:00,65.5,62.3,29.90,ESE,122,12.5,19.6,88,0.00,,,0.00,SSEC-RIG,2013-07-22 00:30:00,
2013-07-21 19:35:00,65.4,62.3,29.90,ESE,116,12.0,17.1,89,0.00,,,0.00,SSEC-RIG,2013-07-22 00:35:00,
2013-07-21 19:40:00,65.2,61.9,29.91,SE,126,13.2,17.8,88,0.00,,,0.00,SSEC-RIG,2013-07-22 00:40:00,
2013-07-21 19:45:00,65.3,62.1,29.90,SE,127,13.6,17.0,88,0.00,,,0.00,SSEC-RIG,2013-07-22 00:45:00,
2013-07-21 19:55:00,65.4,61.7,29.90,ESE,122,14.3,18.4,87,0.00,,,0.00,SSEC-RIG,2013-07-22 00:55:00,
2013-07-21 20:00:00,66.1,62.9,29.90,ESE,122,8.6,-999.0,88,0.00,,,0.00,SSEC-RIG,2013-07-22 01:00:00,
2013-07-21 20:05:00,66.2,62.8,29.90,ESE,120,9.6,-999.0,88,0.00,,,0.00,SSEC-RIG,2013-07-22 01:05:00,
2013-07-21 20:10:00,65.7,61.7,29.90,SE,125,15.1,19.0,86,0.00,,,0.00,SSEC-RIG,2013-07-22 01:10:00,
2013-07-21 20:15:00,65.8,61.8,29.89,SE,126,14.5,18.3,86,0.00,,,0.00,SSEC-RIG,2013-07-22 01:15:00,
2013-07-21 20:20:00,65.7,61.6,29.89,ESE,123,15.0,18.6,86,0.00,,,0.00,SSEC-RIG,2013-07-22 01:20:00,
2013-07-21 20:25:00,66.1,62.2,29.89,SE,129,12.5,18.2,86,0.00,,,0.00,SSEC-RIG,2013-07-22 01:25:00,
2013-07-21 20:30:00,66.1,61.9,29.89,SE,128,13.4,20.6,85,0.00,,,0.00,SSEC-RIG,2013-07-22 01:30:00,
2013-07-21 20:35:00,66.1,61.5,29.89,ESE,122,15.5,19.2,84,0.00,,,0.00,SSEC-RIG,2013-07-22 01:35:00,
2013-07-21 20:40:00,66.4,62.6,29.89,ESE,119,11.2,16.1,86,0.00,,,0.00,SSEC-RIG,2013-07-22 01:40:00,
2013-07-21 20:45:00,66.3,61.9,29.88,ESE,122,14.6,18.6,85,0.00,,,0.00,SSEC-RIG,2013-07-22 01:45:00,
2013-07-21 20:50:00,66.2,61.6,29.89,SE,127,15.2,18.9,84,0.00,,,0.00,SSEC-RIG,2013-07-22 01:50:00,
2013-07-21 21:00:00,66.3,62.2,29.89,SE,132,13.1,18.4,85,0.00,,,0.00,SSEC-RIG,2013-07-22 02:00:00,
2013-07-21 21:05:00,66.0,61.6,29.90,SE,133,13.6,18.7,85,0.00,,,0.00,SSEC-RIG,2013-07-22 02:05:00,
2013-07-21 21:10:00,65.8,61.6,29.89,SE,131,13.7,17.1,85,0.00,,,0.00,SSEC-RIG,2013-07-22 02:10:00,
2013-07-21 21:15:00,65.8,61.9,29.90,SE,136,14.4,17.2,86,0.00,,,0.00,SSEC-RIG,2013-07-22 02:15:00,
2013-07-21 21:20:00,65.6,61.7,29.90,SE,130,13.3,17.5,86,0.00,,,0.00,SSEC-RIG,2013-07-22 02:20:00,
2013-07-21 21:25:00,65.8,62.2,29.90,SE,137,13.5,-999.0,87,0.00,,,0.00,SSEC-RIG,2013-07-22 02:25:00,
2013-07-21 21:30:00,65.7,62.1,29.90,SE,139,11.9,-999.0,87,0.00,,,0.00,SSEC-RIG,2013-07-22 02:30:00,
2013-07-21 21:35:00,65.6,62.2,29.90,SSE,147,8.9,-999.0,88,0.00,,,0.00,SSEC-RIG,2013-07-22 02:35:00,
2013-07-21 21:40:00,65.8,62.7,29.90,SE,139,9.2,-999.0,89,0.00,,,0.00,SSEC-RIG,2013-07-22 02:40:00,
2013-07-21 21:45:00,65.6,62.4,29.90,SE,142,9.5,-999.0,88,0.00,,,0.00,SSEC-RIG,2013-07-22 02:45:00,
2013-07-21 21:50:00,65.2,61.8,29.90,SSE,149,11.7,-999.0,88,0.00,,,0.00,SSEC-RIG,2013-07-22 02:50:00,
2013-07-21 21:55:00,65.3,62.2,29.90,SE,142,11.6,-999.0,89,0.00,,,0.00,SSEC-RIG,2013-07-22 02:55:00,
2013-07-21 22:00:00,65.4,62.5,29.90,SE,140,10.5,-999.0,89,0.00,,,0.00,SSEC-RIG,2013-07-22 03:00:00,
2013-07-21 22:05:00,65.7,63.0,29.90,SE,141,11.0,-999.0,90,0.00,,,0.00,SSEC-RIG,2013-07-22 03:05:00,
2013-07-21 22:10:00,65.8,63.0,29.89,SE,140,10.7,-999.0,90,0.00,,,0.00,SSEC-RIG,2013-07-22 03:10:00,
2013-07-21 22:15:00,65.3,62.1,29.90,SSE,150,11.6,17.7,88,0.00,,,0.00,SSEC-RIG,2013-07-22 03:15:00,
2013-07-21 22:20:00,65.3,62.2,29.90,SSE,152,13.2,17.0,89,0.00,,,0.00,SSEC-RIG,2013-07-22 03:20:00,
2013-07-21 22:25:00,65.4,62.5,29.89,SE,144,12.9,17.0,90,0.00,,,0.00,SSEC-RIG,2013-07-22 03:25:00,
2013-07-21 22:30:00,65.8,63.4,29.89,SE,142,10.4,-999.0,91,0.00,,,0.00,SSEC-RIG,2013-07-22 03:30:00,
2013-07-21 22:35:00,65.8,63.4,29.89,SE,145,9.8,-999.0,91,0.00,,,0.00,SSEC-RIG,2013-07-22 03:35:00,
2013-07-21 22:40:00,65.6,63.2,29.89,SE,146,11.3,-999.0,91,0.00,,,0.00,SSEC-RIG,2013-07-22 03:40:00,
2013-07-21 22:45:00,65.7,63.5,29.88,SSE,153,8.3,-999.0,91,0.00,,,0.00,SSEC-RIG,2013-07-22 03:45:00,
2013-07-21 22:50:00,65.2,63.0,29.89,South,170,9.5,-999.0,91,0.00,,,0.00,SSEC-RIG,2013-07-22 03:50:00,
2013-07-21 22:55:00,65.0,62.8,29.88,SSE,168,11.0,-999.0,92,0.00,,,0.00,SSEC-RIG,2013-07-22 03:55:00,
2013-07-21 23:00:00,65.0,62.9,29.89,SSE,167,9.8,-999.0,92,0.00,,,0.00,SSEC-RIG,2013-07-22 04:00:00,
2013-07-21 23:05:00,64.9,62.9,29.88,SSE,164,11.0,-999.0,92,0.00,,,0.00,SSEC-RIG,2013-07-22 04:05:00,
2013-07-21 23:10:00,64.9,62.9,29.88,SSE,166,11.1,-999.0,92,0.00,,,0.00,SSEC-RIG,2013-07-22 04:10:00,
2013-07-21 23:15:00,64.8,62.8,29.88,South,176,8.7,-999.0,92,0.00,,,0.00,SSEC-RIG,2013-07-22 04:15:00,
2013-07-21 23:20:00,64.6,62.9,29.89,South,179,7.8,-999.0,93,0.00,,,0.00,SSEC-RIG,2013-07-22 04:20:00,
2013-07-21 23:25:00,64.4,62.8,29.89,South,176,8.7,-999.0,93,0.00,,,0.00,SSEC-RIG,2013-07-22 04:25:00,
2013-07-21 23:35:00,64.7,62.6,29.88,SSE,159,10.5,-999.0,92,0.00,,,0.00,SSEC-RIG,2013-07-22 04:35:00,
2013-07-21 23:40:00,64.6,62.3,29.89,South,177,11.0,-999.0,91,0.00,,,0.00,SSEC-RIG,2013-07-22 04:40:00,
2013-07-21 23:45:00,64.5,62.3,29.89,South,174,8.6,-999.0,92,0.00,,,0.00,SSEC-RIG,2013-07-22 04:45:00,
2013-07-21 23:50:00,64.3,62.2,29.88,SSE,168,11.4,-999.0,92,0.00,,,0.00,SSEC-RIG,2013-07-22 04:50:00,
2013-07-21 23:55:00,64.2,62.1,29.88,South,170,11.3,-999.0,92,0.00,,,0.00,SSEC-RIG,2013-07-22 04:55:00,